Weather History for Fort Myers, FL

Change the Weather History Date:

Tuesday, April 10, 2012

  Actual Average Record
Temperature  
Mean Temperature 76 °F 73 °F  
Max Temperature 87 °F 84 °F 93 °F (1944)
Min Temperature 64 °F 62 °F 47 °F (1950)
Degree Days  
Heating Degree Days 0 0  
Month to date heating degree days 0 0  
Since 1 July heating degree days 129 284  
Cooling Degree Days 11 8  
Month to date cooling degree days 117 76  
Year to date cooling degree days 720 437  
Growing Degree Days 25 (Base 50)    
Moisture  
Dew Point 60 °F    
Average Humidity 61    
Maximum Humidity 84    
Minimum Humidity 35    
Precipitation  
Precipitation 0.00 in 0.07 in 1.23 in (1951)
Month to date precipitation 0.01 0.78  
Year to date precipitation 2.39 7.75  
Sea Level Pressure  
Sea Level Pressure 30.04 in    
Wind  
Wind Speed 5 mph (WNW)    
Max Wind Speed 16 mph    
Max Gust Speed 20 mph    
Visibility 10 miles    
Events      
T = Trace of Precipitation, MM = Missing Value Source: NWS Daily Summary

Daily Weather History Graph

Daily Weather History Graph

Search for Another Location

Airport:

Trip Planner

Search our weather history database for the weather conditions in past years. The results will help you decide how hot, cold, wet, or windy it might be!

Date:

Astronomy

Apr. 10, 2012 Rise Set
Actual Time 7:08 AM EDT 7:49 PM EDT
Civil Twilight 6:44 AM EDT 8:12 PM EDT
Nautical Twilight 6:17 AM EDT 8:40 PM EDT
Astronomical Twilight 5:49 AM EDT 9:08 PM EDT
Moon No Moon Rise 10:13 AM EDT (4/10)
Length of Visible Light 13h 27m
Length of Day
12h 40m
Waning Gibbous, 79% of the Moon is Illuminated
Apr 10
Waning Gibbous
Apr 13
Last Quarter
Apr 21
New
Apr 29
First Quarter
May 5
Full

Hourly Weather History & Observations

Time (EDT) Temp. Heat Index Dew Point Humidity Pressure Visibility Wind Dir Wind Speed Gust Speed Precip Events Conditions
12:53 AM 71.1 °F - 60.1 °F 68% 30.06 in 10.0 mi NNE 6.9 mph - N/A   Partly Cloudy
1:53 AM 69.1 °F - 60.1 °F 73% 30.05 in 10.0 mi NE 3.5 mph - N/A   Clear
2:53 AM 68.0 °F - 59.0 °F 73% 30.03 in 10.0 mi ENE 3.5 mph - N/A   Clear
3:53 AM 66.0 °F - 59.0 °F 78% 30.02 in 10.0 mi Calm Calm - N/A   Clear
4:53 AM 66.0 °F - 59.0 °F 78% 30.02 in 10.0 mi Calm Calm - N/A   Clear
5:53 AM 64.9 °F - 59.0 °F 81% 30.03 in 10.0 mi Calm Calm - N/A   Clear
6:53 AM 64.0 °F - 59.0 °F 84% 30.05 in 10.0 mi Calm Calm - N/A   Clear
7:53 AM 66.0 °F - 60.1 °F 81% 30.07 in 10.0 mi Calm Calm - N/A   Clear
8:53 AM 72.0 °F - 59.0 °F 64% 30.09 in 10.0 mi Calm Calm - N/A   Clear
9:53 AM 77.0 °F - 59.0 °F 54% 30.11 in 10.0 mi SSE 5.8 mph - N/A   Clear
10:53 AM 79.0 °F - 59.0 °F 50% 30.09 in 10.0 mi Calm Calm - N/A   Partly Cloudy
11:53 AM 82.0 °F 82.0 °F 57.9 °F 44% 30.08 in 10.0 mi ENE 8.1 mph - N/A   Partly Cloudy
12:53 PM 84.0 °F 82.9 °F 55.0 °F 37% 30.06 in 10.0 mi SE 8.1 mph - N/A   Partly Cloudy
1:53 PM 82.9 °F 82.4 °F 57.0 °F 41% 30.04 in 10.0 mi Calm Calm - N/A   Scattered Clouds
3:53 PM 86.0 °F 85.4 °F 59.0 °F 40% 30.01 in 10.0 mi WSW 8.1 mph 17.3 mph N/A   Overcast
4:53 PM 84.9 °F 84.8 °F 60.1 °F 43% 29.99 in 10.0 mi WSW 13.8 mph - N/A   Scattered Clouds
5:53 PM 82.9 °F 83.3 °F 61.0 °F 47% 29.99 in 10.0 mi WSW 11.5 mph - N/A   Partly Cloudy
6:53 PM 80.1 °F 81.2 °F 62.1 °F 54% 29.99 in 10.0 mi West 11.5 mph - N/A   Clear
7:53 PM 78.1 °F - 62.1 °F 58% 30.00 in 10.0 mi West 8.1 mph - N/A   Mostly Cloudy
8:53 PM 75.9 °F - 64.0 °F 67% 30.01 in 10.0 mi WNW 8.1 mph - N/A   Clear
9:53 PM 75.0 °F - 62.1 °F 64% 30.03 in 10.0 mi WNW 6.9 mph - N/A   Clear
10:53 PM 75.0 °F - 62.1 °F 64% 30.05 in 10.0 mi Calm Calm - N/A   Mostly Cloudy
11:53 PM 73.9 °F - 61.0 °F 64% 30.06 in 10.0 mi NW 3.5 mph - N/A   Mostly Cloudy